Regional Weather Roundup
Issued by NWS Midland/Odessa, TX

Home | Current Version | Previous Version | Text Only | Print | Product List | Glossary On
Versions: 1 2 3 4 5 6 7 8 9 10 11 12 13 14 15 16 17 18 19 20 21 22 23 24 25 26 27 28 29 30 31 32 33 34 35 36 37 38 39 40 41 42 43 44 45 46 47 48 49 50
000
ASUS44 KMAF 261110
RWRMAF
MIDLAND AREA WEATHER ROUNDUP
NATIONAL WEATHER SERVICE MIDLAND TX
500 AM CST MON JAN 26 2015

...IN SOUTHWEST TEXAS AND SOUTHEAST NEW MEXICO...

CITY           SKY/WX    TMP DP  RH WIND       PRES   REMARKS
ALPINE         CLOUDY    34  28  79 SW8       30.37F WCI  28
ANDREWS        FAIR      38  28  66 W9        30.27R WCI  32
ARTESIA        PTCLDY    34  30  86 NW8       30.31S WCI  27
BIG SPRING     PTCLDY    33  29  84 SE5       30.28S WCI  29
CARLSBAD       PTCLDY    32  27  81 NW7       30.29S WCI  26
DRYDEN           N/A     45  32  60 NW7       30.27R
FORT STOCKTON  CLOUDY    42  31  64 SW12      30.28F WCI  36
GUAD PASS      NOT AVBL
HOBBS          CLEAR     36  28  75 W9        30.28S WCI  29
MARFA          CLOUDY    28  25  86 N6        30.34S WCI  22
MIDLAND AIRPK  CLEAR     38  30  73 W6        30.27F WCI  33
MIDLAND INTL   CLEAR     38  29  70 W9        30.26F WCI  31
ODESSA         PTCLDY    36  28  73 W7        30.28S WCI  30
PECOS          CLOUDY    34  29  85 SW6       30.30S WCI  28
PRESIDIO       FAIR      46  32  58 CALM      30.30S
SEMINOLE       PTCLDY    37  28  68 W9        30.27S WCI  30
SNYDER         PTCLDY   N/A N/A N/A NW5       30.24S
WINK           PTCLDY    32  26  78 N6        30.28S WCI  26
$$
...OTHER STATIONS IN TEXAS...

CITY           SKY/WX    TMP DP  RH WIND       PRES   REMARKS
ABILENE        CLEAR     38  29  70 CALM      30.22S
AMARILLO       CLEAR     39  31  72 W14       30.23F WCI  31
AUSTIN         CLEAR     41  33  73 W5        30.22S WCI  38
BROWNSVILLE    CLOUDY    52  43  71 NW5       30.23S
CORPUS CHRISTI PTCLDY    42  39  89 W7        30.24R WCI  38
DALLAS FTW     CLEAR     38  27  64 CALM      30.19F
DEL RIO        MOCLDY    42  37  82 NW6       30.27S WCI  38
EL PASO        CLOUDY    38  28  67 N8        30.30R WCI  32
HOUSTON INT    PTCLDY    50  28  42 N8        30.16S
LUBBOCK        PTCLDY    33  28  81 NW8       30.24S WCI  26
SAN ANGELO     CLEAR     36  31  82 SW6       30.25S WCI  31
SAN ANTONIO    PTCLDY    43  34  70 NW5       30.24R
WACO           CLEAR     31  28  89 W3        30.22S
WICHITA FALLS  NOT AVBL
$$
...OTHER LOCATIONS IN NEW MEXICO...

CITY           SKY/WX    TMP DP  RH WIND       PRES   REMARKS
ALAMAGORDO     PTCLDY    32  23  69 SE3       30.32F
ALBUQUERQUE    CLEAR     36  24  62 N9        30.35F WCI  29
CANNON AFB     PTCLDY    38  25  59 W12       30.26S WCI  31
CLOVIS         PTCLDY    34  27  75 W10       30.26S WCI  26
HOLLOMAN AFB   MOCLDY    29  25  82 E2        30.31S
ROSWELL        PTCLDY    32  27  81 NW7       30.29F WCI  26
RUIDOSO        CLEAR     34  18  51 W6        30.36F WCI  29
SANTA FE       PTCLDY    28  22  78 N9        30.35S WCI  19
TRUTH OR CONSE PTCLDY    34  23  64 N6        30.32R WCI  29
TUCUMCARI      CLEAR     36  29  75 W9        30.26F WCI  29
$$



USA.gov is the U.S. government's official web portal to all federal, state and local government web resources and services.